Regional Weather Roundup
Issued by NWS

Home | Current Version | Previous Version | Text Only | Print | Product List | Glossary On
Versions: 1 2 3 4 5 6 7 8 9 10 11 12 13 14 15 16 17 18 19 20 21 22 23 24 25 26 27 28 29 30 31 32 33 34 35 36 37 38 39 40 41 42 43 44 45 46 47 48 49 50
000
ASUS43 KMKX 170200
RWRWI

WISCONSIN REGIONAL WEATHER ROUNDUP
NATIONAL WEATHER SERVICE MILWAUKEE/SULLIVAN WI
900 PM CDT TUE SEP 16 2014

NOTE: "FAIR" INDICATES FEW OR NO CLOUDS BELOW 12,000 FEET WITH NO
SIGNIFICANT WEATHER AND/OR OBSTRUCTIONS TO VISIBILITY.

WIZ001-002-006>008-014>016-023>028-170300-
NORTHWEST WISCONSIN

CITY           SKY/WX    TMP DP  RH WIND       PRES   REMARKS
SUPERIOR ARPT  CLEAR     55  46  72 SW7       29.99S
ASHLAND        CLEAR     56  44  64 SW8       30.00S
HAYWARD        CLEAR     49  45  86 CALM      30.03S
SIREN          CLEAR     50  46  86 CALM      30.03S
RICE LAKE      CLEAR     51  46  84 CALM      30.05S
LADYSMITH      CLEAR     50  45  82 CALM      30.06S
EAU CLAIRE     NOT AVBL
MENOMONIE      CLEAR     53  48  86 E3        30.05S
NEW RICHMOND   CLEAR     50  45  84 CALM      30.04S
OSCEOLA        CLEAR     51  49  92 CALM      30.05S
$$

WIZ003>005-009-010-017-018-170300-
NORTH CENTRAL WISCONSIN

CITY           SKY/WX    TMP DP  RH WIND       PRES   REMARKS
WOODRUFF       CLEAR     52  45  77 SW3       30.03S
RHINELANDER    CLEAR     47  42  83 W5        30.04S
EAGLE RIVER    CLEAR     45  41  84 SW5       30.03R
LAND O LAKES   MOCLDY    48  43  82 CALM      30.03R
PHILLIPS       CLEAR     50  44  81 CALM      30.04R
TOMAHAWK       FAIR      47  43  85 CALM      30.05S
MEDFORD        CLEAR     51  44  77 SW5       30.05S
MERRILL        PTCLDY    51  45  78 CALM      30.06R
$$

WIZ029-030-035-036-043>047-170300-
CENTRAL WISCONSIN

CITY           SKY/WX    TMP DP  RH WIND       PRES   REMARKS
WAUSAU         CLEAR     54  45  71 SW5       30.04F
MOSINEE        CLEAR     50  46  87 SW5       30.07S
MARSHFIELD     CLEAR     50  45  83 SW3       30.06S
STEVENS POINT  CLEAR     49  44  81 CALM      30.07S
WAUPACA        CLEAR     52  47  83 CALM      30.08R
WAUTOMA        NOT AVBL
WISC RAPIDS    CLEAR     46  44  93 CALM      30.08S
CAMP DOUGLAS   NOT AVBL
$$

WIZ011>013-019>022-031-037>040-048>050-170300-
NORTHEAST WISCONSIN

CITY           SKY/WX    TMP DP  RH WIND       PRES   REMARKS
ANTIGO         CLEAR     49  44  81 SW6       30.06R
STURGEON BAY   CLEAR     55  45  67 SW7       30.04S
GREEN BAY      CLEAR     52  46  80 S5        30.05S
MANITOWOC      NOT AVBL
APPLETON       CLEAR     54  43  66 SW7       30.07S
CLINTONVILLE   CLEAR     52  45  76 W3        30.06S
OSHKOSH        CLEAR     55  43  63 SW6       30.07S
$$

WIZ032>034-041-042-053>061-170300-
SOUTHWEST WISCONSIN

CITY           SKY/WX    TMP DP  RH WIND       PRES   REMARKS
LA CROSSE      CLEAR     54  48  80 SE6       30.06R
SPARTA         CLEAR     49  47  93 E3        30.08S
VIROQUA        FAIR      54  44  69 SE5       30.08R
BOSCOBEL       CLEAR     49  46  90 CALM      30.08S
PRAIRIE DU CHI CLEAR     51  47  86 E3        30.07S
PLATTEVILLE    FAIR      55  45  69 CALM      30.09S
$$

WIZ056-057-062-063-064-067-068-170300-
SOUTH CENTRAL WISCONSIN

CITY           SKY/WX    TMP DP  RH WIND       PRES   REMARKS
BARABOO/DELLS  CLEAR     49  44  83 CALM      30.08F
LONE ROCK      NOT AVBL
WATERTOWN      CLEAR     47  46  94 CALM      30.09S
MADISON        CLEAR     49  45  86 CALM      30.09S
MIDDLETON      FAIR      48  47  98 CALM      30.10R
MONROE         CLEAR     55  43  62 CALM      30.10R
JANESVILLE     CLEAR     52  46  82 CALM      30.09R
$$

WIZ051-052-058>065-066-070>072-170300-
SOUTHEAST WISCONSIN

CITY           SKY/WX    TMP DP  RH WIND       PRES   REMARKS
MILWAUKEE      CLEAR     53  44  71 SW6       30.10S
WAUKESHA       CLEAR     46  43  87 CALM      30.11R
MILWAUKEE/TIMM NOT AVBL
RACINE         CLEAR     50  45  83 CALM      30.11S
BURLINGTON     CLEAR     44  43  98 CALM      30.10S
KENOSHA        CLEAR     50  44  80 S5        30.10F
FOND DU LAC    CLEAR     49  44  83 SW6       30.08S
SHEBOYGAN      CLEAR     48  44  86 CALM      30.08S
WEST BEND      CLEAR     48  45  87 CALM      30.09R
JUNEAU         CLEAR     51  45  80 CALM      30.10S
$$

LSZ147-162-170300-
LAKE SUPERIOR

STATION/POSITION TIME  TEMP    WIND        PRES    WAVE
                       AIR SEA DIR/SP/G            HT/PER
                 (UTC) (F)     (DEG/KT/KT) (MB)    (FT/S)
W MID LAKE BUOY  0050   50 47   50/  6/  6 1014.9R   2/ 5
DEVILS ISLAND    0100   58     230/ 10/ 11 1014.7R
PORT WING        0100   59     200/  5/  7 1015.2S
SAXON HARBOR     0140   59     190/  3/  8 1015.6S
$$

LMZ867-665-643>646-170300-
LAKE MICHIGAN

STATION/POSITION TIME  TEMP    WIND        PRES    WAVE
                       AIR SEA DIR/SP/G            HT/PER
                 (UTC) (F)     (DEG/KT/KT) (MB)    (FT/S)
N MID LAKE BUOY  0050   59 58  220/ 16/ 19 1015.7F   3/ 5
NORTHPORT PIER   0100   57     190/  2/  5 1015.9R
KEWAUNEE LAKESHO 0100   58     210/  7/  7 1016.7R
SHEBOYGAN LAKESH 0100   56 49  220/  8/  9 1018.9R
PORT WASHINGTON  0140   54     260/  4/  5 1019.3S
ATWATER BUOY     0100   59     180/ 10/ 12 1019.9F
MILWAUKEE LAKESH 0100   57     190/  7/  9   N/A
S MID LAKE BUOY  0050   58 64  150/  4/  6 1019.6F   1
KENOSHA   LAKESH 0100   59     170/  6/  9 1019.0R
$$

TC  - TEMPERATURE IN CELSIUS
VSB - VISIBILITY IN STATUTE MILES
WCI - WIND CHILL INDEX
HX  - HEAT INDEX



USA.gov is the U.S. government's official web portal to all federal, state and local government web resources and services.